Home   Weather   Hofheim am Taunus   Past weeks

Flag for Germany Past Weather in Hofheim am Taunus, Hesse, Germany — Yesterday and Last 2 Weeks

Now
32 °F

Clear.


Feels Like: 32 °F
Forecast: 17 / 27 °F
Wind: No wind

Location: Wiesbaden Airport

Current Time: Jan 21, 2017 at 1:21:58 am

Latest Report: Jan 21, 2017 at 12:58 am


Visibility: N/A

Pressure: 30.48 "Hg

Humidity: 64%

Dew Point: 21 °F

Location of Hofheim am TaunusLocation

Past Weather in Hofheim am Taunus — Graph

°F

Hofheim am Taunus Temperature Yesterday

Maximum temperature yesterday: 41 °F (at 1:58 pm)
Minimum temperature yesterday: 20 °F (at 6:58 am)
Average temperature yesterday: 31 °F

High & Low Weather Summary for the Past Weeks

 TemperatureHumidityPressure
High43 °F (Jan 13, 2:06 am)100% (Jan 7, 10:06 pm)30.80 "Hg (Jan 7, 10:06 pm)
Low14 °F (Jan 7, 3:58 am)20% (Jan 20, 1:58 pm)29.13 "Hg (Jan 13, 2:06 am)
Average31 °F84%30.14 "Hg
* Reported Jan 5 11:58 pm — Jan 20 11:58 pm, Hofheim am Taunus, Weather by CustomWeather, © 2017

Note: Actual official high and low records may vary slightly from our data, if they occured in-between our weather recording intervals... More about our weather records

Advertising

Hofheim am Taunus Weather History for the Previous 24 Hours

Scroll right to see more
 ConditionsComfort  
Time TempWeatherWind HumidityBarometerVisibility
11:58 pm
Fri, Jan 20
29 °FClear.No wind72%30.49 "HgN/A
10:58 pm34 °FClear.7 mph65%30.49 "HgN/A
9:58 pm34 °FClear.8 mph59%30.50 "HgN/A
8:58 pm36 °FClear.8 mph55%30.51 "HgN/A
7:58 pm30 °FClear.3 mph64%30.51 "HgN/A
6:58 pm34 °FClear.No wind51%30.51 "HgN/A
5:58 pm33 °FClear.No wind52%30.52 "HgN/A
4:58 pm37 °FSunny.No wind41%30.51 "HgN/A
3:58 pm39 °FSunny.7 mph33%30.51 "HgN/A
2:58 pm41 °FSunny.10 mph22%30.51 "HgN/A
1:58 pm41 °FSunny.10 mph20%30.52 "HgN/A
12:58 pm38 °FSunny.13 mph25%30.54 "HgN/A
11:58 am37 °FSunny.7 mph26%30.56 "HgN/A
10:58 am30 °FSunny.No wind55%30.58 "HgN/A
9:58 am25 °FSunny.No wind74%30.59 "HgN/A
8:58 am22 °FSunny.No wind66%30.59 "HgN/A
7:58 am21 °FClear.No wind63%30.58 "HgN/A
6:58 am20 °FClear.No wind70%30.58 "HgN/A
5:58 am21 °FClear.No wind74%30.58 "HgN/A
4:58 am22 °FClear.No wind67%30.58 "HgN/A
3:58 am22 °FClear.3 mph69%30.58 "HgN/A
2:58 am29 °FClear.No wind44%30.57 "HgN/A
1:58 am31 °FClear.9 mph38%30.57 "HgN/A
Weather by CustomWeather, © 2017

See weather overviewHow to use our weather pages